Showing default

QIANFAN-20, 61553

Orbit data source: Space-Track

QIANFAN-20, 61553 is a Chinese payload satellite in LEO that was launched on Tue, 15 Oct 2024 UTC via a CHANG ZHENG 6A launch vehicle from the Taiyaun Space Center, China (TSC). Payload-class satellites include a variety of spacecraft equipped with specific instruments for various scientific and technological missions. These include communications satellites like Starlink; space stations such as the ISS; scientific satellites like the Hubble; Earth observation satellites from companies like Planet Labs, Umbra, and HawkEye 360; GPS; miniature CubeSats for education and research; and military/defense satellites.

Loading next visibility...
Identifier
61553, 2024-185B
Orbit
LEO
Country
Flag of CNCN / PRC
Related business
Manufacturer
GESIH/SECM
Mission
Partially operational Commercial Communications
Bus & Motor
QIANFAN, Unknown motor
Mass
267 kg wet, ~267 kg dry
Launch date (UTC)
2024-10-15 (2 years ago)
Launch vehicle
CHANG ZHENG 6A
Launch site
Taiyaun Space Center, China (TSC)
Object type
Payload
Rocket body
Debris
Shape & HBR
Box + 1 Pan, 5.0 m
Radar Cross Section
13.200 m², Large (>1 m²)

Expand to show TLE details & history
Last TLE update: 6 hours ago

TLE from 6 hours ago
0 QIANFAN-20
1 61553U 24185B   26124.15583481  .00000404  00000-0  22557-3 0  9992
2 61553  88.9836  62.0650 0003235 242.5418 117.5438 14.08991134 89547
Epoch: 2026-05-04T03:44Z
TLE epoch observation values (Epoch: 2026-05-04T03:44:24.127Z)
Latitude
0.00006°
Longitude
143.91539°
Altitude
866.947 km
Speed
7.418 km/s
True Right ascension
04h 08m 15s
True Declination
0° 00' 00"
Sunlit
Object was in daylight at epoch
Visualization orbit readout
Latitude
Unknown
Longitude
Unknown
Altitude
Unknown
Speed
Unknown
Apparent Right ascension
Unknown
Apparent Declination
Unknown
Sunlit
N/A
Visualization observer readout
Local Sidereal Time
17:42:09
Azimuth
Unknown
Elevation
Unknown
Doppler factor
Unknown
Orbital elements
Apogee altitude
862.135 km
Perigee altitude
857.452 km
Semi-major axis
7,237.93 km
Eccentricity
0.00032
Inclination
88.9836°
RAAN
62.065°
Arg. of periapsis
242.5418°
True anomaly
117.57666°
Mean anomaly
117.5438°
Eccentric anomaly
117.56023°
Mean motion
3.5247 °/min
Orbital period
102.14 mins
BSTAR
0.00022557
Loading maneuver chart data...
Computing Atmospheric mass density...
Loading historical data...
Loading historical data...
Loading historical data...
Loading historical data...
Loading historical data...
Loading historical data...
Loading historical data...

Documentation

Showing up to 5 results
|